EZY929Z EGNT-EGAA

Flight info

Callsign EZY929Z
Flight time 0h 38m
Altitude 24000
Route BLACA DCT BELZU
Aircraft A320/M-SDE3FGHIRWY/LB1

Departure

Time 2026-04-27 22:30
Airport Newcastle International Airport (EGNT)

Arrival

Time 2026-04-27 23:09
Airport Belfast International Airport (EGAA)
Time Latitude Longitude Altitude Speed Heading
2026-04-27 21:59 55.03665 -1.70780 251 ft 0 kts
2026-04-27 22:25 55.03642 -1.70784 274 ft 4 kts 11°
2026-04-27 22:25 55.03616 -1.70797 279 ft 4 kts 30°
2026-04-27 22:25 55.03600 -1.70826 278 ft 3 kts 90°
2026-04-27 22:25 55.03600 -1.70840 275 ft 0 kts 95°
2026-04-27 22:26 55.03600 -1.70841 275 ft 0 kts 95°
2026-04-27 22:27 55.03598 -1.70800 275 ft 9 kts 94°
2026-04-27 22:28 55.03583 -1.70661 278 ft 13 kts 138°
2026-04-27 22:28 55.03514 -1.70646 274 ft 0 kts 181°
2026-04-27 22:29 55.03494 -1.70648 274 ft 5 kts 184°
2026-04-27 22:29 55.03448 -1.70654 274 ft 8 kts 181°
2026-04-27 22:29 55.03385 -1.70636 274 ft 10 kts 162°
2026-04-27 22:29 55.03375 -1.70556 274 ft 3 kts 64°
2026-04-27 22:30 55.03385 -1.70521 274 ft 15 kts 64°
2026-04-27 22:30 55.03553 -1.69897 274 ft 94 kts 65°
2026-04-27 22:30 55.03921 -1.68533 275 ft 151 kts 63°
2026-04-27 22:30 55.04380 -1.66817 891 ft 158 kts 65°
2026-04-27 22:31 55.04832 -1.65060 1738 ft 160 kts 63°
2026-04-27 22:31 55.05498 -1.63408 2170 ft 177 kts 31°
2026-04-27 22:31 55.06750 -1.63022 2485 ft 199 kts 347°
2026-04-27 22:31 55.07951 -1.64437 2860 ft 228 kts 305°
2026-04-27 22:32 55.08449 -1.67213 3398 ft 253 kts 276°
2026-04-27 22:32 55.08422 -1.70343 4315 ft 261 kts 267°
2026-04-27 22:32 55.08216 -1.73522 5322 ft 266 kts 264°
2026-04-27 22:32 55.07970 -1.76735 6295 ft 269 kts 264°
2026-04-27 22:33 55.07737 -1.79999 7253 ft 273 kts 265°
2026-04-27 22:33 55.07531 -1.83303 8185 ft 276 kts 266°
2026-04-27 22:33 55.07348 -1.86657 9113 ft 279 kts 266°
2026-04-27 22:33 55.07179 -1.90054 10049 ft 283 kts 266°
2026-04-27 22:34 55.07018 -1.93515 10746 ft 295 kts 267°
2026-04-27 22:34 55.06855 -1.97173 11085 ft 317 kts 267°
2026-04-27 22:34 55.06680 -2.01116 11752 ft 326 kts 267°
2026-04-27 22:34 55.06506 -2.05040 12534 ft 331 kts 267°
2026-04-27 22:35 55.06324 -2.09070 13330 ft 336 kts 267°
2026-04-27 22:35 55.06136 -2.13159 14098 ft 340 kts 267°
2026-04-27 22:35 55.05945 -2.17302 14788 ft 345 kts 268°
2026-04-27 22:35 55.05751 -2.21494 15478 ft 349 kts 268°
2026-04-27 22:36 55.05549 -2.25725 16179 ft 352 kts 268°
2026-04-27 22:36 55.05344 -2.30010 16871 ft 356 kts 268°
2026-04-27 22:36 55.05139 -2.34326 17554 ft 360 kts 268°
2026-04-27 22:36 55.04931 -2.38695 18237 ft 363 kts 268°
2026-04-27 22:37 55.04720 -2.43107 18891 ft 367 kts 268°
2026-04-27 22:37 55.04505 -2.47562 19479 ft 370 kts 268°
2026-04-27 22:37 55.04285 -2.52046 20073 ft 373 kts 268°
2026-04-27 22:37 55.04060 -2.56571 20668 ft 375 kts 268°
2026-04-27 22:38 55.03832 -2.61117 21268 ft 378 kts 268°
2026-04-27 22:38 55.03600 -2.65695 21845 ft 381 kts 269°
2026-04-27 22:38 55.03365 -2.70310 22412 ft 383 kts 269°
2026-04-27 22:38 55.03129 -2.74957 22980 ft 386 kts 269°
2026-04-27 22:39 55.02887 -2.79621 23561 ft 388 kts 269°
2026-04-27 22:39 55.02641 -2.84313 24097 ft 390 kts 269°
2026-04-27 22:39 55.02393 -2.89033 24343 ft 391 kts 269°
2026-04-27 22:39 55.02145 -2.93725 24403 ft 382 kts 269°
2026-04-27 22:40 55.01899 -2.98228 24412 ft 368 kts 269°
2026-04-27 22:40 55.01658 -3.02655 24414 ft 365 kts 269°
2026-04-27 22:40 55.01427 -3.06986 24415 ft 364 kts 269°
2026-04-27 22:40 55.01195 -3.11376 24415 ft 363 kts 269°
2026-04-27 22:41 55.00963 -3.15754 24412 ft 362 kts 269°
2026-04-27 22:41 55.00726 -3.20126 24415 ft 362 kts 268°
2026-04-27 22:41 55.00483 -3.24491 24413 ft 362 kts 268°
2026-04-27 22:41 55.00238 -3.28854 24410 ft 361 kts 268°
2026-04-27 22:42 54.99990 -3.33209 24407 ft 361 kts 268°
2026-04-27 22:42 54.99741 -3.37554 24408 ft 361 kts 268°
2026-04-27 22:42 54.99494 -3.41902 24407 ft 360 kts 268°
2026-04-27 22:42 54.99249 -3.46244 24410 ft 360 kts 268°
2026-04-27 22:43 54.99001 -3.50574 24410 ft 360 kts 268°
2026-04-27 22:43 54.98751 -3.54914 24407 ft 359 kts 268°
2026-04-27 22:43 54.98502 -3.59239 24403 ft 359 kts 268°
2026-04-27 22:43 54.98251 -3.63562 24410 ft 359 kts 268°
2026-04-27 22:44 54.97999 -3.67872 24408 ft 359 kts 268°
2026-04-27 22:44 54.97744 -3.72195 24411 ft 358 kts 268°
2026-04-27 22:44 54.97488 -3.76512 24411 ft 358 kts 268°
2026-04-27 22:44 54.97229 -3.80830 24412 ft 358 kts 267°
2026-04-27 22:45 54.96973 -3.85070 24411 ft 357 kts 267°
2026-04-27 22:45 54.96710 -3.89372 24413 ft 357 kts 267°
2026-04-27 22:45 54.96447 -3.93668 24406 ft 357 kts 267°
2026-04-27 22:45 54.96184 -3.97959 24410 ft 357 kts 267°
2026-04-27 22:46 54.95921 -4.02249 24412 ft 357 kts 267°
2026-04-27 22:46 54.95657 -4.06538 24411 ft 356 kts 266°
2026-04-27 22:46 54.95388 -4.10829 24409 ft 356 kts 266°
2026-04-27 22:46 54.95118 -4.15111 24410 ft 356 kts 266°
2026-04-27 22:47 54.94848 -4.19380 24410 ft 356 kts 266°
2026-04-27 22:47 54.94575 -4.23661 24407 ft 355 kts 266°
2026-04-27 22:47 54.94304 -4.27852 24291 ft 344 kts 266°
2026-04-27 22:47 54.94033 -4.32046 24129 ft 356 kts 266°
2026-04-27 22:48 54.93851 -4.34897 24017 ft 361 kts 266°
2026-04-27 22:48 54.93571 -4.39261 23834 ft 363 kts 266°
2026-04-27 22:48 54.93196 -4.45036 23573 ft 363 kts 266°
2026-04-27 22:48 54.92909 -4.49384 23376 ft 362 kts 265°
2026-04-27 22:49 54.92714 -4.52313 23190 ft 361 kts 265°
2026-04-27 22:49 54.92333 -4.58033 22828 ft 359 kts 265°
2026-04-27 22:49 54.92046 -4.62329 22560 ft 357 kts 265°
2026-04-27 22:49 54.91852 -4.65228 22383 ft 357 kts 265°
2026-04-27 22:50 54.91566 -4.69501 22117 ft 355 kts 265°
2026-04-27 22:50 54.91280 -4.73749 21857 ft 354 kts 265°
2026-04-27 22:50 54.90988 -4.77986 21578 ft 353 kts 265°
2026-04-27 22:50 54.90694 -4.82213 21064 ft 353 kts 265°
2026-04-27 22:51 54.90404 -4.86395 20492 ft 353 kts 265°
2026-04-27 22:51 54.90114 -4.90635 19926 ft 354 kts 265°
2026-04-27 22:51 54.89823 -4.94880 19370 ft 354 kts 265°
2026-04-27 22:51 54.89524 -4.99194 18819 ft 355 kts 265°
2026-04-27 22:52 54.89226 -5.03396 18224 ft 355 kts 265°
2026-04-27 22:52 54.88920 -5.07663 17605 ft 356 kts 265°
2026-04-27 22:52 54.88615 -5.11928 17002 ft 356 kts 265°
2026-04-27 22:52 54.88116 -5.16141 16414 ft 358 kts 253°
2026-04-27 22:53 54.87118 -5.20114 15837 ft 360 kts 245°
2026-04-27 22:53 54.85989 -5.23992 15264 ft 360 kts 245°
2026-04-27 22:53 54.84866 -5.27870 14702 ft 359 kts 245°
2026-04-27 22:53 54.83751 -5.31743 14152 ft 358 kts 245°
2026-04-27 22:54 54.82638 -5.35604 13536 ft 357 kts 245°
2026-04-27 22:54 54.81528 -5.39443 12931 ft 356 kts 245°
2026-04-27 22:54 54.80418 -5.43268 12335 ft 354 kts 245°
2026-04-27 22:54 54.79316 -5.47059 11752 ft 350 kts 245°
2026-04-27 22:55 54.78244 -5.50732 11182 ft 333 kts 245°
2026-04-27 22:55 54.77221 -5.54237 10612 ft 319 kts 245°
2026-04-27 22:55 54.76234 -5.57606 10048 ft 307 kts 245°
2026-04-27 22:55 54.75285 -5.60840 9643 ft 295 kts 244°
2026-04-27 22:56 54.74367 -5.63964 9372 ft 288 kts 244°
2026-04-27 22:56 54.73471 -5.67008 9107 ft 281 kts 244°
2026-04-27 22:56 54.72594 -5.69986 8836 ft 275 kts 244°
2026-04-27 22:56 54.71729 -5.72925 8597 ft 272 kts 244°
2026-04-27 22:57 54.70873 -5.75833 8338 ft 270 kts 244°
2026-04-27 22:57 54.70022 -5.78718 8081 ft 269 kts 244°
2026-04-27 22:57 54.69171 -5.81597 7831 ft 268 kts 244°
2026-04-27 22:57 54.68325 -5.84457 7583 ft 267 kts 244°
2026-04-27 22:58 54.67496 -5.87266 7339 ft 265 kts 244°
2026-04-27 22:58 54.66650 -5.90136 7088 ft 264 kts 244°
2026-04-27 22:58 54.65816 -5.92956 6844 ft 263 kts 243°
2026-04-27 22:58 54.65002 -5.95692 6596 ft 255 kts 243°
2026-04-27 22:59 54.64203 -5.98377 6329 ft 248 kts 243°
2026-04-27 22:59 54.63421 -6.00996 6071 ft 242 kts 244°
2026-04-27 22:59 54.62656 -6.03546 5812 ft 236 kts 244°
2026-04-27 22:59 54.61912 -6.06034 5582 ft 231 kts 244°
2026-04-27 23:00 54.60460 -6.10896 5078 ft 226 kts 244°
2026-04-27 23:00 54.59742 -6.13300 4811 ft 225 kts 244°
2026-04-27 23:00 54.59023 -6.15698 4546 ft 225 kts 244°
2026-04-27 23:01 54.58303 -6.18094 4298 ft 225 kts 244°
2026-04-27 23:01 54.57585 -6.20482 4091 ft 224 kts 244°
2026-04-27 23:01 54.56866 -6.22875 4038 ft 225 kts 244°
2026-04-27 23:01 54.56145 -6.25270 4034 ft 226 kts 244°
2026-04-27 23:02 54.55426 -6.27650 4036 ft 219 kts 244°
2026-04-27 23:02 54.54726 -6.29959 4037 ft 216 kts 244°
2026-04-27 23:02 54.54033 -6.32250 4037 ft 215 kts 244°
2026-04-27 23:02 54.53341 -6.34533 4046 ft 215 kts 244°
2026-04-27 23:03 54.52647 -6.36819 4037 ft 216 kts 244°
2026-04-27 23:03 54.51965 -6.39115 4038 ft 215 kts 249°
2026-04-27 23:03 54.51716 -6.41595 3873 ft 210 kts 277°
2026-04-27 23:03 54.52167 -6.43915 3594 ft 209 kts 303°
2026-04-27 23:04 54.53201 -6.45632 3316 ft 209 kts 330°
2026-04-27 23:04 54.54512 -6.46703 3043 ft 209 kts 334°
2026-04-27 23:04 54.55829 -6.47759 2762 ft 208 kts 334°
2026-04-27 23:04 54.57189 -6.48571 2569 ft 208 kts 358°
2026-04-27 23:05 54.58500 -6.47778 2525 ft 201 kts 42°
2026-04-27 23:05 54.59146 -6.45734 2543 ft 193 kts 70°
2026-04-27 23:05 54.59630 -6.43612 2559 ft 189 kts 63°
2026-04-27 23:05 54.60198 -6.41590 2536 ft 183 kts 62°
2026-04-27 23:06 54.60746 -6.39686 2305 ft 172 kts 61°
2026-04-27 23:06 54.61264 -6.37869 2047 ft 166 kts 61°
2026-04-27 23:06 54.61765 -6.36095 1831 ft 161 kts 62°
2026-04-27 23:06 54.62233 -6.34406 1602 ft 151 kts 62°
2026-04-27 23:07 54.62681 -6.32798 1409 ft 146 kts 61°
2026-04-27 23:07 54.63124 -6.31227 1238 ft 145 kts 62°
2026-04-27 23:07 54.63565 -6.29660 1056 ft 145 kts 62°
2026-04-27 23:07 54.63994 -6.28103 857 ft 143 kts 62°
2026-04-27 23:08 54.64416 -6.26557 680 ft 142 kts 63°
2026-04-27 23:08 54.64826 -6.25005 468 ft 141 kts 63°
2026-04-27 23:08 54.65242 -6.23479 318 ft 141 kts 63°
2026-04-27 23:08 54.65625 -6.22058 276 ft 107 kts 65°
2026-04-27 23:09 54.65812 -6.21356 275 ft 18 kts 66°
2026-04-27 23:09 54.65867 -6.21321 272 ft 9 kts 337°
2026-04-27 23:09 54.65898 -6.21350 272 ft 0 kts 331°
2026-04-27 23:09 54.65909 -6.21360 272 ft 5 kts 331°
2026-04-27 23:10 54.65964 -6.21392 272 ft 11 kts 10°
2026-04-27 23:10 54.66015 -6.21279 272 ft 13 kts 63°
2026-04-27 23:10 54.66075 -6.21220 272 ft 12 kts 334°
2026-04-27 23:10 54.66147 -6.21282 275 ft 10 kts 333°
2026-04-27 23:11 54.66192 -6.21357 272 ft 8 kts 259°
2026-04-27 23:11 54.66181 -6.21411 272 ft 1 kts 244°
2026-04-27 23:11 54.66180 -6.21413 272 ft 0 kts 244°